Погода в Херманусе

ЮАР     34°25′16″S   19°14′24″E
темп.,
°C
ветер,
м/с
пор.,
м/с
влажн.,
%
обл.,
%
осадки,
мм/ч
давл.,
гПа
погр.,
м
15 мая, сб
сб1523:00+18сз7128011 0.0 1009347
02:00+17сз8138176 0.0 1009495
05:00+17сз7128257 0.1 1008529
08:00+17ссз588220 0.1 1008235
11:00+19сз8117354 0.0 1008437
14:00+18зсз101582100 0.4 1007694
17:00+15ююв10128796 14.4 1009713
20:00+15ю4676100 16.3 1013744
16 мая, вс
вс1623:00+15ю5671100 0.5 1015844
02:00+15ю447197 0.6 1016760
05:00+15юз445897 0.1 10161123
08:00+15юз3462100 0.3 1018770
11:00+15зсз445894 0.1 1019952
14:00+16з556066 0.2 1018961
17:00+16зюз456224 0.2 1019984
20:00+15з346789 0.4 1021514
17 мая, пн
пн1723:00+15зсз23662 0.1 1021582
02:00+14ссз33693 0.1 1021320
05:00+14ссз33715 0.0 1021254
08:00+14ссз337122 0.1 1022276
11:00+15сз23685 0.1 1022353
14:00+15зюз33730 0.1 1021414
17:00+15зюз23704 0.0 1020413
20:00+15з11696 0.0 1021426
18 мая, вт
вт1823:00+14ссв2273100 0.0 1020191
02:00+14ссв2274100 0.0 1019159
05:00+13ссв2274100 0.0 1018161
08:00+13с22705 0.0 1018155
11:00+15сз126194 0.0 1018229
14:00+16зюз326284 0.0 1015233
17:00+16з2368100 0.0 1014235
20:00+16з3574100 0.0 1015341
19 мая, ср
ср1923:00+15зсз3474100 0.0 1014260
02:00+15ссз23655 0.0 1013178
05:00+15ссз2258100 0.0 1012132
08:00+15ссз225482 0.0 1012134
11:00+16сз345398 0.0 1012206
14:00+18зсз575966 0.0 1009220
17:00+18зсз81266100 0.0 1009261
20:00+17сз711685 0.0 1009331